This is the latest recevied weather packets stored in our database for station/object WX5II-15. If no packets are shown the sender has not sent any weather packets the latest 10 day(s).
| Time | Temp. | Humidity | Pressure | Rain* | Wind** | Luminosity | Snow |
|---|---|---|---|---|---|---|---|
| 1787927744 | 30° C | 65% | 1008.4 hPa | 0 mm | - | - | - |
| 1787927143 | 30.56° C | 64% | 1008.1 hPa | 0 mm | - | - | - |
| 1787926543 | 30.56° C | 65% | 1008.4 hPa | 0 mm | - | - | - |
| 1787925942 | 30.56° C | 66% | 1008.4 hPa | 0 mm | - | - | - |
| 1787925342 | 30° C | 67% | 1008.4 hPa | 0 mm | - | - | - |
| 1787924741 | 28.89° C | 68% | 1008.1 hPa | 0 mm | - | - | - |
| 1787924140 | 28.33° C | 71% | 1008.1 hPa | 0 mm | - | - | - |
| 1787923540 | 27.22° C | 73% | 1008.1 hPa | 0 mm | - | - | - |
| 1787922939 | 27.22° C | 73% | 1007.7 hPa | 0 mm | - | - | - |
| 1787922339 | 26.67° C | 75% | 1008.1 hPa | 0 mm | - | - | - |
| 1787921738 | 25.56° C | 76% | 1007.7 hPa | 0 mm | - | - | - |
| 1787921138 | 25.56° C | 77% | 1007.7 hPa | 0 mm | - | - | - |
| 1787920537 | 25.56° C | 77% | 1007.7 hPa | 0 mm | - | - | - |
| 1787919936 | 25.56° C | 77% | 1007.7 hPa | 0 mm | - | - | - |
| 1787919336 | 25.56° C | 76% | 1007.7 hPa | 0 mm | - | - | - |
| 1787918735 | 25.56° C | 76% | 1007.7 hPa | 0 mm | - | - | - |
| 1787918136 | 25.56° C | 76% | 1007.4 hPa | 0 mm | - | - | - |
| 1787917536 | 25.56° C | 76% | 1007.4 hPa | 0 mm | - | - | - |
| 1787916934 | 25.56° C | 75% | 1007.4 hPa | 0 mm | - | - | - |
| 1787916333 | 26.11° C | 76% | 1007.4 hPa | 0 mm | - | - | - |
| 1787915732 | 26.11° C | 76% | 1007.1 hPa | 0 mm | - | - | - |
| 1787915132 | 26.11° C | 76% | 1007.1 hPa | 0 mm | - | - | - |
| 1787914534 | 26.11° C | 76% | 1007.1 hPa | 0 mm | - | - | - |
| 1787913931 | 26.11° C | 76% | 1006.7 hPa | 0 mm | - | - | - |
| 1787913330 | 26.11° C | 76% | 1006.7 hPa | 0 mm | - | - | - |
* Rain latest hour (hover to see other rain measurements)
** Current wind speed in m/s (hover to see current wind gust speed)